TimeCDT,TemperatureF,Dew PointF,Humidity,Sea Level PressureIn,VisibilityMPH,Wind Direction,Wind SpeedMPH,Gust SpeedMPH,PrecipitationIn,Events,Conditions,WindDirDegrees,DateUTC
12:12 AM,68.9,66.7,93,29.82,10.0,East,6.9,-,N/A,,Clear,80,2013-06-23 05:12:00
12:33 AM,68.9,66.7,93,29.78,10.0,East,9.2,18.4,N/A,,Scattered Clouds,80,2013-06-23 05:33:00
12:53 AM,68.9,66.7,93,29.79,10.0,East,9.2,-,N/A,,Clear,90,2013-06-23 05:53:00
1:13 AM,68.9,66.7,93,29.79,10.0,East,9.2,-,N/A,,Mostly Cloudy,90,2013-06-23 06:13:00
1:33 AM,69.3,66.7,92,29.79,10.0,East,8.1,-,N/A,Thunderstorm,Mostly Cloudy,100,2013-06-23 06:33:00
1:53 AM,69.3,67.1,93,29.79,10.0,East,8.1,-,N/A,Thunderstorm,Scattered Clouds,100,2013-06-23 06:53:00
2:12 AM,69.3,67.1,93,29.80,10.0,SE,8.1,-,N/A,Rain,Light Rain,130,2013-06-23 07:12:00
2:33 AM,69.1,67.3,94,29.80,7.0,ESE,4.6,-,0.03,Rain,Rain,120,2013-06-23 07:33:00
2:53 AM,68.9,67.3,95,29.79,7.0,ESE,4.6,-,0.03,Rain-Thunderstorm,Light Thunderstorms and Rain,110,2013-06-23 07:53:00
3:13 AM,68.9,67.3,95,29.77,4.0,East,9.2,-,0.09,Rain-Thunderstorm,Heavy Thunderstorms and Rain,90,2013-06-23 08:13:00
3:33 AM,68.5,67.3,96,29.74,5.0,East,6.9,17.3,0.15,Rain-Thunderstorm,Light Thunderstorms and Rain,100,2013-06-23 08:33:00
3:53 AM,68.9,67.6,96,29.73,7.0,ESE,12.7,18.4,0.18,Rain-Thunderstorm,Light Thunderstorms and Rain,110,2013-06-23 08:53:00
4:13 AM,68.7,67.1,95,29.70,3.0,East,13.8,-,0.19,Rain-Thunderstorm,Heavy Thunderstorms and Rain,100,2013-06-23 09:13:00
4:33 AM,66.6,63.3,89,29.74,3.0,West,9.2,-,0.40,Rain-Thunderstorm,Heavy Thunderstorms and Rain,260,2013-06-23 09:33:00
4:53 AM,65.5,63.7,94,29.75,1.2,Calm,Calm,-,1.20,Rain-Thunderstorm,Heavy Thunderstorms and Rain,0,2013-06-23 09:53:00
5:13 AM,64.4,63.1,96,29.80,1.2,West,5.8,-,0.59,Rain-Thunderstorm,Heavy Thunderstorms and Rain,280,2013-06-23 10:13:00
5:33 AM,63.5,62.6,97,29.69,5.0,NNE,10.4,-,0.72,Rain-Thunderstorm,Light Thunderstorms and Rain,20,2013-06-23 10:33:00
5:53 AM,63.1,62.6,98,29.64,10.0,NNE,12.7,-,0.74,Rain-Thunderstorm,Light Thunderstorms and Rain,30,2013-06-23 10:53:00
6:13 AM,63.5,63.0,98,29.53,10.0,NNE,18.4,26.5,N/A,Rain-Thunderstorm,Light Thunderstorms and Rain,20,2013-06-23 11:13:00
6:33 AM,64.4,63.7,98,29.71,10.0,SE,18.4,32.2,N/A,,Scattered Clouds,130,2013-06-23 11:33:00
6:53 AM,63.9,63.5,99,29.68,10.0,ESE,11.5,19.6,N/A,,Scattered Clouds,120,2013-06-23 11:53:00
7:13 AM,63.9,63.1,97,29.67,10.0,ESE,3.5,-,N/A,,Clear,120,2013-06-23 12:13:00
7:33 AM,64.6,63.7,97,29.70,10.0,West,6.9,-,N/A,,Scattered Clouds,260,2013-06-23 12:33:00
7:53 AM,64.6,63.7,97,29.72,10.0,West,6.9,-,N/A,,Overcast,260,2013-06-23 12:53:00
8:13 AM,65.1,64.0,96,29.70,10.0,West,5.8,-,N/A,,Overcast,270,2013-06-23 13:13:00
8:33 AM,65.5,64.4,96,29.69,10.0,West,3.5,-,N/A,,Overcast,270,2013-06-23 13:33:00
8:53 AM,66.4,65.1,96,29.69,10.0,West,9.2,-,N/A,,Overcast,260,2013-06-23 13:53:00
9:13 AM,67.6,65.7,93,29.71,10.0,WSW,13.8,18.4,N/A,,Mostly Cloudy,250,2013-06-23 14:13:00
9:33 AM,69.8,66.0,88,29.72,10.0,WSW,18.4,-,N/A,,Scattered Clouds,240,2013-06-23 14:33:00
9:53 AM,70.0,65.5,86,29.73,10.0,WSW,13.8,-,N/A,,Mostly Cloudy,240,2013-06-23 14:53:00
10:13 AM,70.3,64.6,82,29.73,10.0,WSW,16.1,23.0,N/A,,Mostly Cloudy,240,2013-06-23 15:13:00
10:33 AM,70.2,64.6,82,29.74,10.0,WSW,13.8,23.0,N/A,,Mostly Cloudy,240,2013-06-23 15:33:00
10:53 AM,71.1,64.9,81,29.74,10.0,WSW,13.8,19.6,N/A,,Scattered Clouds,250,2013-06-23 15:53:00
11:13 AM,72.3,64.4,76,29.75,10.0,WSW,16.1,21.9,N/A,,Scattered Clouds,240,2013-06-23 16:13:00
11:33 AM,73.8,64.9,74,29.75,10.0,WSW,16.1,-,N/A,,Clear,240,2013-06-23 16:33:00
11:53 AM,74.5,64.6,71,29.76,10.0,SW,16.1,20.7,N/A,,Scattered Clouds,230,2013-06-23 16:53:00
12:13 PM,75.4,64.6,69,29.76,10.0,WSW,15.0,-,N/A,,Scattered Clouds,240,2013-06-23 17:13:00
12:33 PM,75.4,62.8,65,29.77,10.0,WSW,19.6,23.0,N/A,,Scattered Clouds,240,2013-06-23 17:33:00
12:53 PM,75.6,64.4,68,29.77,10.0,WSW,17.3,21.9,N/A,,Clear,240,2013-06-23 17:53:00
1:13 PM,76.1,64.0,66,29.78,10.0,WSW,18.4,24.2,N/A,,Clear,250,2013-06-23 18:13:00
1:33 PM,75.9,64.2,67,29.79,10.0,WSW,17.3,24.2,N/A,,Scattered Clouds,240,2013-06-23 18:33:00
1:53 PM,76.6,64.4,66,29.79,10.0,SW,15.0,23.0,N/A,,Scattered Clouds,220,2013-06-23 18:53:00
2:13 PM,75.9,64.2,67,29.80,10.0,WSW,16.1,23.0,N/A,,Mostly Cloudy,240,2013-06-23 19:13:00
2:33 PM,76.1,63.7,65,29.80,10.0,WSW,16.1,21.9,N/A,,Mostly Cloudy,240,2013-06-23 19:33:00
2:53 PM,76.5,63.3,64,29.80,10.0,WSW,13.8,-,N/A,,Mostly Cloudy,240,2013-06-23 19:53:00
3:13 PM,76.3,63.5,64,29.80,10.0,WSW,12.7,-,N/A,,Mostly Cloudy,250,2013-06-23 20:13:00
3:33 PM,76.6,63.5,64,29.80,10.0,WSW,12.7,-,N/A,,Mostly Cloudy,250,2013-06-23 20:33:00
3:53 PM,77.4,63.1,61,29.81,10.0,SW,13.8,-,N/A,,Mostly Cloudy,230,2013-06-23 20:53:00
4:12 PM,77.4,60.6,56,29.81,10.0,SW,16.1,20.7,N/A,,Scattered Clouds,220,2013-06-23 21:12:00
4:33 PM,77.7,61.7,58,29.81,10.0,WSW,15.0,24.2,N/A,,Scattered Clouds,250,2013-06-23 21:33:00
4:53 PM,77.9,61.5,57,29.81,10.0,SW,13.8,-,N/A,,Clear,230,2013-06-23 21:53:00
5:13 PM,77.0,61.9,59,29.81,10.0,WSW,10.4,-,N/A,,Scattered Clouds,250,2013-06-23 22:13:00
5:32 PM,78.1,60.8,55,29.82,10.0,WSW,13.8,-,N/A,,Scattered Clouds,250,2013-06-23 22:32:00
5:53 PM,78.8,60.3,53,29.82,10.0,WSW,11.5,-,N/A,,Scattered Clouds,240,2013-06-23 22:53:00
6:13 PM,77.4,60.6,56,29.82,10.0,WSW,9.2,-,N/A,,Scattered Clouds,250,2013-06-23 23:13:00
6:33 PM,77.5,58.6,52,29.82,10.0,WSW,13.8,17.3,N/A,,Scattered Clouds,240,2013-06-23 23:33:00
6:53 PM,77.5,58.6,52,29.83,10.0,WSW,12.7,19.6,N/A,,Scattered Clouds,250,2013-06-23 23:53:00
7:13 PM,77.4,58.1,51,29.83,10.0,WSW,11.5,-,N/A,,Scattered Clouds,250,2013-06-24 00:13:00
7:33 PM,76.8,59.0,54,29.84,10.0,WSW,9.2,-,N/A,,Clear,240,2013-06-24 00:33:00
7:53 PM,75.9,60.8,59,29.85,10.0,WSW,4.6,-,N/A,,Clear,250,2013-06-24 00:53:00
8:13 PM,75.0,59.7,59,29.85,10.0,WSW,8.1,-,N/A,,Clear,250,2013-06-24 01:13:00
8:32 PM,73.6,60.4,63,29.85,10.0,WSW,5.8,-,N/A,,Clear,250,2013-06-24 01:32:00
8:53 PM,71.2,61.9,72,29.85,10.0,WSW,4.6,-,N/A,,Clear,250,2013-06-24 01:53:00
9:13 PM,69.1,62.6,80,29.85,10.0,WSW,3.5,-,N/A,,Clear,250,2013-06-24 02:13:00
9:32 PM,67.6,62.6,84,29.85,10.0,Calm,Calm,-,N/A,,Clear,0,2013-06-24 02:32:00
9:53 PM,66.4,61.9,85,29.86,10.0,Calm,Calm,-,N/A,,Clear,0,2013-06-24 02:53:00
10:13 PM,67.6,60.6,78,29.87,10.0,Calm,Calm,-,N/A,,Clear,0,2013-06-24 03:13:00
10:33 PM,66.4,61.0,83,29.88,10.0,Calm,Calm,-,N/A,,Clear,0,2013-06-24 03:33:00
10:53 PM,66.4,59.9,80,29.88,10.0,SSW,3.5,-,N/A,,Clear,210,2013-06-24 03:53:00
11:12 PM,66.4,59.5,79,29.89,10.0,Calm,Calm,-,N/A,,Clear,0,2013-06-24 04:12:00
11:33 PM,65.3,59.5,82,29.89,10.0,Calm,Calm,-,N/A,,Clear,0,2013-06-24 04:33:00
11:53 PM,66.2,59.7,80,29.89,10.0,Calm,Calm,-,N/A,,Clear,0,2013-06-24 04:53:00